FW8442 Weather Reports


Display with metric or nautical units.
time (UTC)temp
F
wind
direction
speed
MPH
gust
MPH
rain 1hr
in
rain 24hr
in
rain mn
in
humidity
%
barometer
mb
20260505124550 67 286 1.0 5.0 0.00 0.00 0.00 65 1011.1
20260505123104 66 207 0.0 4.0 0.00 0.00 0.00 68 1011.2
20260505121543 64 0 0.0 4.0 0.00 0.00 0.00 71 1011.1
20260505120055 62 144 0.0 1.0 0.00 0.00 0.00 73 1011.0
20260505114552 60 0 0.0 0.0 0.00 0.00 0.00 77 1011.0
20260505113051 58 0 0.0 0.0 0.00 0.00 0.00 80 1011.1
20260505111548 57 0 0.0 0.0 0.00 0.00 0.00 80 1011.1
20260505101548 57 257 0.0 1.0 0.00 0.00 0.00 78 1010.8
20260505100048 57 241 0.0 2.0 0.00 0.00 0.00 78 1010.3
20260505094549 57 0 0.0 1.0 0.00 0.00 0.00 76 1010.2
20260505093049 58 0 0.0 1.0 0.00 0.00 0.00 75 1010.1
20260505091603 58 217 0.0 3.0 0.00 0.00 0.00 75 1010.0
20260505090104 58 0 0.0 2.0 0.00 0.00 0.00 75 1010.0
20260505084602 57 0 0.0 4.0 0.00 0.00 0.00 77 1010.0
20260505083107 56 0 0.0 0.0 0.00 0.00 0.00 77 1010.1
20260505081603 57 0 0.0 1.0 0.00 0.00 0.00 75 1010.1
20260505080100 57 0 0.0 1.0 0.00 0.00 0.00 74 1010.1
20260505074552 58 0 0.0 1.0 0.00 0.00 0.00 73 1010.0
20260505073053 58 0 0.0 3.0 0.00 0.00 0.00 72 1010.0
20260505071554 58 0 0.0 2.0 0.00 0.00 0.00 73 1009.8
20260505070050 58 0 0.0 4.0 0.00 0.00 0.00 73 1009.8
20260505064547 57 0 0.0 3.0 0.00 0.00 0.00 74 1009.9
20260505063051 56 0 0.0 1.0 0.00 0.00 0.00 73 1010.0
20260505061550 56 0 0.0 0.0 0.00 0.00 0.00 72 1010.1
20260505054554 57 0 0.0 0.0 0.00 0.00 0.00 71 1010.2
20260505053052 58 0 0.0 1.0 0.00 0.00 0.00 69 1010.2
20260505051543 58 174 0.0 1.0 0.00 0.00 0.00 69 1010.2
20260505041600 59 203 0.0 4.0 0.00 0.00 0.00 66 1010.5
20260505040049 59 177 1.0 4.0 0.00 0.00 0.00 66 1010.4
20260505034546 59 0 1.0 6.0 0.00 0.00 0.00 66 1010.4
20260505033054 59 153 0.0 2.0 0.00 0.00 0.00 66 1010.4
20260505031548 59 186 0.0 3.0 0.00 0.00 0.00 65 1010.5
20260505030109 59 261 1.0 5.0 0.00 0.00 0.00 65 1010.6
20260505024549 59 192 0.0 2.0 0.00 0.00 0.00 64 1010.7
20260505023052 60 0 0.0 2.0 0.00 0.00 0.00 63 1010.7
20260505021552 60 181 0.0 5.0 0.00 0.00 0.00 62 1010.8
20260505020051 61 226 1.0 3.0 0.00 0.00 0.00 60 1010.8
20260505014607 62 107 0.0 6.0 0.00 0.00 0.00 58 1010.7
20260505013055 62 0 0.0 3.0 0.00 0.00 0.00 57 1010.7
20260505011558 63 0 0.0 4.0 0.00 0.00 0.00 56 1010.4
20260505010058 63 138 0.0 3.0 0.00 0.00 0.00 54 1010.3
20260505004554 64 0 0.0 1.0 0.00 0.00 0.00 51 1010.1
20260505003101 64 0 0.0 1.0 0.00 0.00 0.00 47 1009.9
20260505001547 66 0 0.0 1.0 0.00 0.00 0.00 44 1009.8
20260505000053 67 215 0.0 2.0 0.00 0.00 0.00 43 1009.4
20260504234549 68 0 0.0 2.0 0.00 0.00 0.00 41 1009.3
20260504233051 69 0 0.0 3.0 0.00 0.00 0.00 40 1009.2
20260504231540 69 0 0.0 3.0 0.00 0.00 0.00 39 1009.1
20260504230043 70 120 0.0 4.0 0.00 0.00 0.00 39 1009.0
20260504224545 70 249 0.0 4.0 0.00 0.00 0.00 37 1009.1
20260504223059 71 0 0.0 6.0 0.00 0.00 0.00 37 1009.0
20260504221544 71 301 0.0 3.0 0.00 0.00 0.00 36 1009.1
20260504220045 71 281 1.0 5.0 0.00 0.00 0.00 36 1009.2
20260504214542 72 229 3.0 6.0 0.00 0.00 0.00 35 1009.2
20260504213049 72 205 2.0 7.0 0.00 0.00 0.00 35 1009.3
20260504211622 72 0 2.0 6.0 0.00 0.00 0.00 34 1009.4
20260504210051 72 238 1.0 7.0 0.00 0.00 0.00 35 1009.3
20260504204543 72 240 2.0 13.0 0.00 0.00 0.00 34 1009.4
20260504203044 72 290 1.0 9.0 0.00 0.00 0.00 35 1009.2
20260504201542 72 176 1.0 6.0 0.00 0.00 0.00 35 1009.2
20260504200052 72 184 2.0 5.0 0.00 0.00 0.00 33 1009.3
20260504194551 72 199 3.0 9.0 0.00 0.00 0.00 34 1009.4
20260504193056 73 290 2.0 6.0 0.00 0.00 0.00 33 1009.6
20260504191606 73 271 1.0 7.0 0.00 0.00 0.00 37 1009.7
20260504190054 73 220 1.0 5.0 0.00 0.00 0.00 35 1010.0
20260504184552 73 226 2.0 7.0 0.00 0.00 0.00 37 1010.4
20260504183049 73 80 1.0 4.0 0.00 0.00 0.00 35 1010.6
20260504181548 72 249 2.0 7.0 0.00 0.00 0.00 37 1010.9
20260504180046 72 252 2.0 6.0 0.00 0.00 0.00 38 1011.1
20260504174548 72 262 3.0 10.0 0.00 0.00 0.00 35 1011.2
20260504173053 71 159 2.0 7.0 0.00 0.00 0.00 38 1011.2
20260504171546 71 252 1.0 6.0 0.00 0.00 0.00 37 1011.5